CAPE
0 0 0 0 0 0 0 0 0 0 0 0 0 0 0 0 0 142 240 0 1 182 400 511 700 387 449 434 204 371 470 469 252 195 138 41 21 4 21 33 55 27 28
0 0 0 0 0 0 0 0 0 0 0 0 0 0 0 0 0 0 157 143 0 14 223 600 851 679 580 515 232 499 589 554 409 193 82 36 31 14 23 23 37 28 20
0 0 0 0 0 0 0 0 0 1 0 0 0 0 0 0 0 0 65 279 97 0 3 252 587 773 909 673 436 580 567 683 456 187 40 33 33 1 27 31 38 38 24
0 0 0 0 0 0 0 0 0 0 0 0 0 0 0 0 0 0 0 117 150 67 5 8 214 755 860 1146 792 666 626 689 483 212 34 44 40 7 21 17 25 27 33
0 0 0 0 0 0 0 0 0 0 0 0 0 0 0 1 0 1 0 23 132 52 71 10 2 160 413 772 1188 931 595 543 436 264 134 67 38 33 34 15 27 33 45
0 0 0 0 0 0 0 0 0 0 0 2 2 0 0 0 1 0 0 3 16 64 22 53 51 33 86 312 863 1137 738 387 492 339 192 88 59 42 44 18 22 25 56
0 0 0 0 0 0 0 0 1 0 0 3 2 0 0 0 0 0 0 2 94 49 25 19 49 62 57 95 393 766 946 747 619 419 261 192 83 65 52 37 25 29 36
0 0 0 0 0 0 0 0 1 1 3 5 3 8 5 0 1 0 1 7 57 41 25 8 33 53 30 229 463 124 74 380 318 406 419 275 166 82 45 59 30 30 25
0 0 0 0 0 1 2 0 1 3 9 1 3 11 13 7 7 0 11 124 189 56 7 0 0 1 45 109 53 4 91 381 453 478 552 423 315 122 66 66 56 43 45
0 0 0 0 0 1 3 1 0 2 7 2 3 3 6 17 16 4 0 0 23 157 71 11 19 13 25 59 14 2 0 29 419 795 538 564 417 146 63 69 54 47 43
0 0 0 0 0 1 2 2 1 3 6 5 8 8 4 8 14 21 10 7 0 0 8 75 49 40 27 93 93 65 0 0 283 723 886 730 438 224 88 85 61 56 67
0 0 0 1 1 2 1 3 4 4 6 5 7 9 8 10 6 18 15 13 8 1 0 0 61 20 15 81 29 25 0 2 100 321 823 328 723 515 241 154 86 85 72
0 0 0 0 2 3 4 3 7 6 6 8 6 8 8 13 24 21 23 20 18 10 3 0 16 25 4 22 44 1 0 0 40 164 328 605 566 309 175 274 184 82 67
1 0 1 2 3 3 6 7 7 8 6 9 8 10 10 13 20 26 29 25 14 16 6 0 0 32 30 6 18 0 1 0 0 28 329 417 309 118 52 142 120 73 47
2 1 1 3 3 3 3 5 9 7 8 7 9 11 10 9 12 30 8 28 40 15 8 4 2 3 8 1 26 8 18 0 0 0 71 122 60 24 39 67 39 31 14
2 4 4 5 5 5 5 6 8 5 8 10 12 11 12 10 13 10 35 18 20 39 16 3 6 1 2 4 0 12 25 0 0 0 0 4 19 35 30 17 3 0 2
2 3 4 5 5 5 5 6 7 7 8 9 10 12 10 8 10 29 22 21 25 30 13 6 3 4 6 17 2 2 8 4 0 0 3 9 0 0 0 0 0 0 0
3 5 5 5 5 5 5 7 7 6 7 9 10 9 11 8 8 6 11 16 17 14 32 8 5 12 10 6 3 1 10 1 15 0 0 1 0 0 0 0 0 0 0
4 5 6 5 4 4 4 5 6 5 6 6 9 9 11 10 10 9 8 11 24 14 34 25 12 10 8 4 6 0 3 12 14 0 0 0 0 0 0 0 0 0 0
6 6 6 7 5 5 4 6 6 5 5 4 4 10 10 10 9 8 5 19 11 19 11 27 22 10 14 3 8 6 1 11 34 0 0 0 0 0 0 0 0 0 0
5 5 6 5 5 5 8 5 4 6 5 5 6 7 8 12 17 19 14 13 11 9 25 27 19 21 10 5 6 5 6 0 9 0 0 0 1 12 0 0 0 0 0
2 2 3 4 6 7 12 30 39 19 0 1 2 4 5 13 25 30 40 41 38 33 30 23 21 15 7 9 4 7 9 12 15 0 0 0 7 4 0 0 0 0 0
3 3 3 4 3 4 12 37 50 44 52 32 7 6 16 15 24 11 22 13 18 22 30 37 32 15 16 16 5 4 9 16 11 2 6 4 3 16 2 0 0 0 0
9 5 4 5 7 1 15 30 42 33 39 17 15 13 15 10 14 18 12 17 12 8 3 1 12 8 10 15 10 9 10 11 10 3 1 4 0 3 0 0 0 0 0
5 3 7 4 6 2 6 23 33 27 16 12 15 15 8 6 11 29 21 26 22 19 5 10 9 9 8 10 15 20 5 8 5 1 2 1 0 0 0 0 0 0 0
7 7 4 8 5 11 18 51 37 19 6 4 1 0 5 14 21 27 15 19 24 19 17 14 9 7 5 11 13 25 22 9 2 5 0 3 1 0 1 1 0 0 0
CIN
0 0 0 0 0 0 0 0 0 0 0 0 0 0 0 0 0 -4 0 -15 -3 -23 -5 0 0 -1 -2 0 -14 -1 0 -2 -21 -59 -114 -181 -4 0 -1 -3 0 0 -4
0 0 0 0 0 0 0 0 0 0 0 0 0 0 0 0 0 0 -1 -9 0 -59 -18 0 0 0 0 0 -10 0 0 0 0 -10 -89 0 -1 -3 0 -2 0 -1 -3
0 0 0 0 0 0 0 0 0 0 0 0 0 0 0 0 0 0 -7 0 -14 0 -73 -11 0 -1 0 -6 0 0 0 0 0 0 -9 0 -1 0 0 0 -2 0 -1
0 0 0 0 0 0 0 0 0 0 0 0 0 0 0 0 0 0 0 -2 -1 -21 -19 -65 -26 -3 0 0 0 0 0 0 0 0 0 0 -1 -2 0 0 -1 -2 0
0 0 0 0 0 0 0 0 0 0 0 0 0 0 0 0 0 0 0 -6 -1 -42 -53 -11 -13 -35 -13 -2 0 0 0 0 0 0 -3 0 -2 -3 0 0 -1 -2 0
0 0 0 0 0 0 0 0 0 0 0 0 0 0 0 0 0 0 0 0 -17 -29 -84 -87 -101 -52 -43 -19 -3 0 0 0 0 0 -5 -7 -1 -4 0 0 -1 0 0
0 0 0 0 0 0 0 0 0 0 0 0 0 0 0 0 0 0 0 0 -2 -23 -54 -84 -99 -60 -52 -35 -26 -1 0 0 0 0 -2 -3 -17 0 0 0 0 0 0
0 0 0 0 0 0 0 0 0 0 0 0 0 0 0 0 0 0 0 0 -13 -75 -45 -45 -74 -95 -77 -21 -4 -43 -39 -9 -10 0 -2 0 -12 0 -1 0 0 0 0
0 0 0 0 0 0 0 0 0 0 0 0 0 0 0 0 0 0 -1 0 0 -22 -82 0 0 -51 -69 -40 -60 -33 -53 -2 0 0 0 0 -3 -26 0 0 0 0 0
0 0 0 0 0 0 0 0 0 0 0 0 0 0 0 0 0 0 0 0 0 -1 -16 -31 -52 -41 -37 -31 -103 -87 0 -68 -2 0 0 0 -2 -20 -6 0 0 0 0
0 0 0 0 0 0 0 0 0 0 0 0 0 0 0 0 0 0 0 0 0 0 0 -1 -4 -22 -15 -14 -26 -79 0 0 -5 0 0 0 0 -1 -32 0 0 0 0
0 0 0 0 0 0 0 0 0 0 0 0 0 0 0 0 0 0 0 0 0 0 0 0 -1 -2 -15 -5 -53 -120 0 -198 -42 0 0 -87 0 0 0 -2 0 0 0
0 0 0 0 0 0 0 0 0 0 0 0 0 0 0 0 0 0 0 0 0 0 0 0 -16 -13 -38 -24 -46 -87 0 0 -84 -7 -2 -4 0 0 -5 0 -11 0 0
0 0 0 0 0 0 0 0 0 0 0 0 0 0 0 0 0 0 0 0 0 0 0 0 0 -28 -8 -15 -23 0 -26 0 0 -88 -1 -24 0 -6 -4 -4 -8 0 0
0 0 0 0 0 0 0 0 0 0 0 0 0 0 0 0 0 0 0 0 0 0 0 0 0 0 0 -1 -32 -24 -31 0 0 0 -47 -14 -7 -10 -14 -12 -6 -8 -5
0 0 0 0 0 0 0 0 0 0 0 0 0 0 0 0 0 0 0 0 0 0 0 0 0 -1 0 0 0 -5 -37 -56 0 0 0 -70 -48 -57 -57 -33 -42 0 -24
0 0 0 0 0 0 0 0 0 0 0 0 0 0 0 0 0 0 0 0 0 0 0 0 0 -1 0 0 0 0 -5 -35 0 0 -92 -101 0 0 0 0 0 0 0
0 0 0 0 0 0 0 0 0 0 0 0 0 0 0 0 0 0 0 0 0 0 0 0 0 0 0 0 0 0 0 -1 -23 0 0 -127 0 0 0 -12 0 0 0
0 0 0 0 0 0 0 0 0 0 0 0 0 0 0 0 0 0 0 0 0 0 0 0 0 0 0 0 0 0 0 -3 -14 0 0 0 0 0 0 0 0 0 0
0 0 0 0 0 0 0 0 0 0 0 0 0 0 0 0 0 0 0 0 0 0 0 0 0 0 0 0 0 0 0 0 -3 -6 0 0 0 0 0 0 0 0 0
0 0 0 0 0 0 0 0 0 0 0 0 0 0 0 0 0 0 0 0 0 0 0 0 0 0 0 0 0 0 0 0 -4 0 0 0 -38 -88 0 0 0 0 0
0 0 0 0 0 0 0 0 0 0 0 0 0 0 0 0 0 0 0 0 0 0 0 0 0 0 0 0 0 0 0 0 0 0 0 -2 -39 -68 0 0 0 0 0
0 0 0 0 0 0 0 0 0 0 0 0 0 -1 0 0 0 0 0 0 0 0 0 0 0 0 0 0 0 0 0 0 0 0 0 -5 -16 -34 -26 0 0 0 0
0 0 0 0 0 0 0 0 0 0 0 0 0 0 0 0 0 0 0 0 0 0 0 0 0 0 0 0 0 0 0 0 0 0 0 0 0 -43 0 0 0 0 0
0 0 0 0 0 0 0 0 0 0 0 0 0 0 0 0 0 0 0 0 0 0 0 0 0 0 0 0 0 0 0 0 0 0 0 0 0 0 0 0 0 0 0
0 0 0 0 0 0 0 0 0 0 0 0 0 0 0 0 0 0 0 0 0 0 0 0 0 0 0 0 0 0 0 0 0 0 0 0 0 0 0 0 0 0 0
Wind_Speed
10 10 10 10 10 11 11 12 12 12 14 14 12 11 13 13 13 9 8 13 18 20 21 19 21 24 24 23 21 20 18 18 21 20 20 20 19 17 17 15 13 15 13
9 10 10 10 9 10 11 11 11 11 12 13 14 12 12 12 14 15 10 11 18 20 21 21 20 23 25 25 24 21 19 20 23 22 21 20 19 18 17 17 15 14 13
11 11 9 10 10 10 13 11 11 10 12 12 15 14 11 12 11 12 14 11 12 20 20 23 21 20 23 26 25 24 22 22 24 24 23 21 21 19 18 17 17 15 15
12 11 10 9 10 10 10 10 10 11 11 11 12 12 11 12 13 14 13 13 11 10 15 22 22 20 23 26 29 30 26 25 25 25 24 23 22 21 19 19 18 17 17
11 10 9 10 11 9 9 9 10 10 12 12 13 13 13 12 13 11 13 16 15 12 9 17 21 19 20 25 27 28 28 26 26 26 25 24 23 22 20 20 20 19 19
11 10 9 10 10 9 9 9 11 11 11 11 13 14 13 13 12 12 13 12 16 15 13 14 12 13 18 23 26 27 28 26 27 26 26 26 24 24 22 22 21 20 20
11 11 8 9 9 9 11 11 10 13 10 10 11 9 13 14 16 14 12 12 17 16 15 13 10 10 11 22 25 25 25 29 29 28 27 26 26 24 24 24 23 22 21
13 12 12 10 10 9 11 11 11 10 9 6 7 10 8 7 3 11 12 14 16 12 14 16 15 15 13 12 18 25 23 26 31 30 29 28 27 26 26 25 24 24 23
14 14 13 11 10 9 8 10 10 11 9 9 8 5 5 5 12 5 7 13 15 11 11 12 13 13 14 13 15 19 23 25 31 33 31 29 29 27 27 27 26 25 24
13 13 14 13 12 9 10 9 9 9 9 10 8 6 7 8 5 9 6 7 9 14 14 12 13 15 15 12 16 19 22 26 29 32 32 33 31 30 29 28 28 27 26
13 13 13 13 12 9 10 11 11 10 8 9 9 8 9 8 10 7 11 10 11 8 11 13 14 14 17 16 14 17 23 28 31 31 34 35 34 33 31 30 28 27 26
10 13 13 12 13 13 13 11 11 12 10 10 10 10 9 8 8 6 7 11 14 9 10 13 13 13 13 14 15 20 24 28 30 31 32 37 33 31 31 30 28 27 25
11 12 13 13 11 12 13 13 12 13 12 11 12 10 10 9 9 9 10 11 8 10 7 12 11 11 12 13 14 19 24 27 30 30 31 34 31 33 31 29 29 27 27
12 15 14 14 15 15 14 14 11 11 13 11 14 12 10 9 9 9 9 9 11 9 9 12 9 10 10 10 13 21 16 28 29 30 31 33 31 31 29 29 28 28 27
12 15 15 15 16 16 15 15 11 13 13 12 13 13 12 10 10 8 9 9 7 7 8 3 5 13 10 5 13 13 17 23 29 31 31 32 29 29 27 28 27 27 26
15 15 16 16 16 15 15 15 12 13 14 11 10 13 13 10 11 10 10 8 9 7 8 5 5 17 12 12 12 13 18 16 26 31 30 29 30 27 29 28 26 27 26
16 16 16 16 16 16 15 15 15 15 16 15 14 14 15 15 11 9 8 10 9 10 12 12 10 11 14 14 11 15 17 17 14 27 30 30 30 28 30 30 29 26 26
16 16 16 16 17 17 16 16 17 15 16 16 15 15 15 11 15 13 11 12 11 11 10 18 12 10 11 12 13 15 14 14 15 22 27 29 30 31 30 33 30 28 26
15 16 16 17 17 17 16 16 17 17 17 17 16 16 15 15 14 11 12 11 10 10 9 10 11 10 9 8 9 11 15 15 15 23 31 29 30 31 32 27 28 29 27
15 16 16 16 17 16 17 17 17 16 16 15 16 16 16 16 16 15 13 13 11 10 11 11 10 10 8 6 7 9 11 10 14 15 20 23 25 28 31 32 29 27 28
15 16 16 16 16 15 13 16 17 17 17 17 17 16 16 18 22 19 11 13 13 11 9 10 10 9 8 7 7 5 9 10 13 11 12 12 12 14 17 27 26 31 30
16 15 15 16 16 12 22 25 21 13 17 17 15 15 15 20 20 25 26 27 21 13 12 9 11 11 12 8 3 6 8 10 10 8 13 12 12 13 13 14 24 31 30
15 15 15 15 15 14 23 24 25 13 12 13 15 15 14 12 18 16 21 25 24 26 24 14 14 13 12 9 4 5 7 9 8 11 11 11 11 12 11 12 24 28 30
14 13 14 14 13 11 21 22 22 13 12 15 15 16 16 16 15 15 15 15 16 15 15 12 12 12 12 9 6 5 8 11 12 10 8 7 8 10 10 11 24 27 28
13 11 13 14 13 11 19 19 17 10 12 14 14 15 16 16 20 24 15 15 15 15 16 24 24 24 23 22 17 8 7 6 8 8 6 4 6 9 10 10 12 26 28
13 11 13 12 17 12 17 17 13 8 12 11 13 15 23 19 24 24 15 13 14 14 13 13 12 15 18 15 19 14 8 7 6 8 4 4 3 7 2 1 9 10 13
Wind_Direction
352 344 346 341 342 341 341 336 330 329 326 322 317 309 306 301 295 263 246 219 222 228 228 225 212 210 206 200 202 204 207 191 188 179 178 171 174 175 180 191 184 177 163
349 344 341 338 340 339 334 330 327 327 324 318 311 306 297 293 289 293 247 241 225 224 225 220 221 214 209 206 203 203 204 193 183 180 178 176 177 175 180 192 187 176 175
346 343 339 334 335 333 330 330 325 327 319 317 308 305 296 288 288 281 264 235 232 227 220 221 218 218 209 210 208 208 204 193 186 181 179 181 178 176 183 187 191 186 185
343 339 336 331 330 329 327 329 331 324 320 313 309 304 294 283 277 274 278 241 229 228 216 220 216 215 210 207 213 212 202 195 191 185 181 183 178 176 184 191 191 193 189
333 332 330 327 330 327 325 326 326 324 317 314 308 303 294 282 274 271 261 257 227 224 218 210 215 212 211 209 212 213 211 198 195 188 185 185 178 177 186 193 193 194 191
318 322 320 319 325 324 322 325 321 319 307 313 312 294 282 275 265 252 251 256 230 222 219 212 204 214 211 209 209 209 210 204 194 192 189 184 181 179 186 194 195 194 195
311 314 307 313 316 316 318 320 320 320 316 327 313 323 290 265 255 244 238 239 227 216 218 212 204 201 211 211 207 208 211 212 191 192 193 188 183 182 187 196 195 195 196
310 309 311 306 307 310 313 318 321 318 310 347 318 297 313 311 273 267 238 230 222 219 219 219 211 203 203 206 205 197 204 205 193 195 194 189 189 185 189 198 198 196 198
306 304 301 301 301 299 301 309 312 311 312 310 306 298 303 307 338 304 287 236 223 209 209 211 216 210 201 203 194 199 195 190 194 205 200 195 191 190 191 198 200 198 196
300 296 294 294 295 293 291 296 297 305 299 301 310 273 273 305 308 318 317 331 296 241 217 208 207 208 203 205 200 196 193 194 200 203 205 200 194 193 196 198 200 199 196
294 289 289 290 288 289 286 286 289 289 285 288 288 292 291 291 269 270 290 305 329 322 315 212 211 206 209 206 199 199 191 195 200 203 206 200 200 197 198 199 204 200 194
295 288 286 284 283 283 285 284 282 280 277 277 278 282 273 272 293 303 302 306 307 299 315 288 213 206 202 208 202 196 189 193 200 205 212 200 200 200 200 200 200 201 197
289 288 289 284 281 278 278 280 278 277 274 271 272 273 270 262 268 286 287 289 284 309 303 307 239 207 205 207 202 191 190 192 202 206 211 202 194 203 202 197 197 198 199
283 287 285 282 280 277 274 274 273 272 271 265 265 261 274 266 267 266 276 295 293 271 288 259 287 218 207 207 208 188 193 194 199 202 201 208 199 197 200 199 196 194 195
281 284 285 284 280 277 274 271 268 269 267 267 265 263 264 262 262 263 277 274 281 282 293 293 316 22 345 278 216 198 206 197 195 198 204 203 206 196 199 197 194 192 193
285 284 283 280 278 274 272 269 266 263 264 263 261 261 261 261 260 265 257 269 270 273 274 297 292 325 331 314 314 243 200 182 198 200 204 204 199 186 196 193 191 188 190
287 284 282 280 276 273 269 267 263 263 263 264 261 263 264 262 259 255 263 264 263 260 262 279 289 299 308 306 320 331 203 195 192 202 206 203 199 191 192 192 187 186 188
286 282 280 276 272 269 266 263 262 262 261 261 259 257 260 261 260 259 256 258 262 263 267 275 288 292 279 312 311 297 253 193 200 197 210 209 201 196 196 196 187 184 186
284 281 278 271 268 265 263 258 256 258 257 257 257 255 255 256 255 254 253 253 259 263 268 275 281 283 295 294 310 316 315 200 201 196 202 206 202 197 192 194 191 185 183
282 278 274 269 264 260 257 256 255 255 253 253 253 252 251 251 251 253 253 254 253 261 272 269 273 280 286 295 297 302 320 307 203 192 198 200 199 198 192 191 192 182 182
283 278 276 270 263 256 252 251 251 251 251 250 248 249 248 249 249 247 247 249 251 250 255 269 281 279 277 297 306 348 303 322 233 186 188 192 191 196 196 193 192 180 183
289 284 277 270 266 257 256 256 254 235 237 241 242 245 246 250 254 250 247 248 245 244 243 257 266 272 285 292 307 303 330 316 306 191 180 190 187 191 188 193 193 186 183
297 292 289 282 269 259 259 262 261 256 251 237 231 236 238 236 239 240 251 254 255 257 255 255 260 265 277 283 291 302 307 293 285 297 299 183 184 193 187 190 180 182 185
306 306 301 298 291 268 264 263 262 257 247 247 246 246 245 246 241 242 248 250 254 257 261 265 260 265 268 273 289 289 278 300 295 284 270 224 170 198 183 187 181 183 184
311 309 307 307 309 289 280 275 270 258 255 255 249 245 241 244 242 245 244 243 245 247 250 254 255 255 258 260 257 257 253 250 289 300 305 286 175 176 184 188 184 187 187
311 314 315 326 321 320 315 303 280 239 240 243 244 242 244 240 238 243 242 237 245 247 245 246 249 258 261 260 259 252 253 244 264 295 267 224 159 142 156 307 186 184 187